Flag Weather past 2 weeks in Damascus, Syria

Now
66 °F

Passing clouds.


Feels Like: 66 °F
Forecast: 54 / 73 °F
Wind: 9 mph from Southwest

Location: Damascus Int. Airport

Current Time: Oct 30, 2014 at 8:30:02 PM

Latest Report: Oct 30, 2014 at 8:00 PM


Visibility: N/A

Pressure: 29.95 "Hg

Humidity: 46%

Dew point: 45 °F

Location of DamascusLocation

Historic Weather in Damascus — Graph

°F

Damascus temperature yesterday

Maximum temperature yesterday: 79 °F (at 12:00 PM)
Minimum temperature yesterday: 46 °F (at 7:00 AM)
Average temperature yesterday: 63 °F

Past Weeks' High & Low Weather Summary

 TemperatureHumidityPressure
High82 °F (Oct 17, 2:00 PM)100% (Oct 19, 11:00 PM)30.18 "Hg (Oct 19, 11:00 PM)
Low37 °F (Oct 21, 7:00 AM)20% (Oct 26, 4:00 PM)29.77 "Hg (Oct 19, 2:00 PM)
Average64 °F55%30.04 "Hg
* Reported Oct 15 7:00 PM — Oct 30 7:00 PM, Damascus, Weather by CustomWeather, © 2014

Note: Actual official high and low records may vary slightly from our data, if they occured in-between our weather recording intervals... More about our weather records

Advertising

Damascus weather history for previous 24 hours

 ConditionsComfort  
Time TempWeatherWind HumidityBarometerVisibility
7:00 PM
Oct 30
68 °FPassing clouds.14 mph40%29.92 "HgN/A
6:00 PM70 °FScattered clouds.16 mph33%29.92 "HgN/A
5:00 PM75 °FScattered clouds.17 mph27%29.92 "HgN/A
4:00 PM77 °FPassing clouds.9 mph26%29.92 "HgN/A
2:00 PM75 °FSunny.5 mph29%29.92 "Hg10 mi
1:00 PM73 °FSunny.No wind33%29.95 "Hg10 mi
12:00 PM70 °FSunny.9 mph40%29.98 "Hg10 mi
11:00 AM66 °FSunny.No wind56%30.01 "Hg10 mi
10:00 AM63 °FSunny.No wind68%30.04 "Hg10 mi
9:00 AM55 °FSunny.No wind88%30.04 "Hg10 mi
8:00 AM52 °FSunny.No wind88%30.01 "Hg10 mi
7:00 AM48 °FClear.No wind87%30.01 "Hg10 mi
6:00 AM52 °FClear.No wind88%30.01 "Hg10 mi
5:00 AM57 °FClear.5 mph88%30.01 "Hg10 mi
4:00 AM57 °FClear.5 mph88%30.01 "Hg10 mi
3:00 AM57 °FClear.7 mph88%30.01 "Hg10 mi
2:00 AM57 °FClear.5 mph77%30.01 "Hg10 mi
1:00 AM61 °FClear.No wind72%30.04 "Hg10 mi
12:00 AM63 °FClear.9 mph68%30.04 "Hg10 mi
11:00 PM
Oct 29
64 °FClear.2 mph64%30.04 "Hg10 mi
10:00 PM63 °FClear.5 mph52%30.01 "Hg10 mi
9:00 PM64 °FClear.No wind46%30.01 "Hg10 mi
8:00 PM68 °FClear.No wind40%30.01 "Hg10 mi
Weather by CustomWeather, © 2014

See weather overviewHow to use our weather pages